Time,TemperatureF,DewpointF,PressureIn,WindDirection,WindDirectionDegrees,WindSpeedMPH,WindSpeedGustMPH,Humidity,HourlyPrecipIn,Conditions,Clouds,dailyrainin,SoftwareType,DateUTC
2013-01-07 00:00:00,39.8,30.1,30.04,WSW,245,0.0,9.0,68,0.00,,---,0.00,VWS V14.01,2013-01-07 05:00:00,
2013-01-07 00:01:00,39.8,30.1,30.04,WSW,245,0.0,9.0,68,0.00,,---,0.00,VWS V14.01,2013-01-07 05:01:00,
2013-01-07 00:06:00,39.9,30.2,30.04,WSW,242,0.0,6.0,68,0.00,,---,0.00,VWS V14.01,2013-01-07 05:06:00,
2013-01-07 00:11:00,40.0,30.3,30.05,WNW,289,1.0,9.0,68,0.00,,---,0.00,VWS V14.01,2013-01-07 05:11:00,
2013-01-07 00:16:00,40.1,30.4,30.05,West,280,3.0,9.0,68,0.00,,---,0.00,VWS V14.01,2013-01-07 05:16:00,
2013-01-07 00:21:00,40.3,30.6,30.05,West,265,1.0,9.0,68,0.00,,---,0.00,VWS V14.01,2013-01-07 05:21:00,
2013-01-07 00:26:00,40.4,30.7,30.05,West,266,0.0,9.0,68,0.00,,---,0.00,VWS V14.01,2013-01-07 05:26:00,
2013-01-07 00:31:00,40.4,30.7,30.05,West,275,2.0,9.0,68,0.00,,---,0.00,VWS V14.01,2013-01-07 05:31:00,
2013-01-07 00:36:00,40.5,30.8,30.06,West,272,0.0,2.0,68,0.00,,---,0.00,VWS V14.01,2013-01-07 05:36:00,
2013-01-07 00:41:00,40.4,30.7,30.06,West,272,0.0,2.0,68,0.00,,---,0.00,VWS V14.01,2013-01-07 05:41:00,
2013-01-07 00:46:00,40.3,30.6,30.06,West,271,3.0,3.0,68,0.00,,---,0.00,VWS V14.01,2013-01-07 05:46:00,
2013-01-07 00:51:00,40.3,30.6,30.06,WNW,293,2.0,3.0,68,0.00,,---,0.00,VWS V14.01,2013-01-07 05:51:00,
2013-01-07 00:56:00,40.2,30.5,30.06,West,281,0.0,3.0,68,0.00,,---,0.00,VWS V14.01,2013-01-07 05:56:00,
2013-01-07 01:01:00,40.1,30.4,30.06,West,275,0.0,3.0,68,0.00,,---,0.00,VWS V14.01,2013-01-07 06:01:00,
2013-01-07 01:06:00,40.0,30.3,30.06,West,275,0.0,1.0,68,0.00,,---,0.00,VWS V14.01,2013-01-07 06:06:00,
2013-01-07 01:11:00,39.9,30.2,30.07,West,275,0.0,1.0,68,0.00,,---,0.00,VWS V14.01,2013-01-07 06:11:00,
2013-01-07 01:16:00,39.8,30.1,30.07,West,275,0.0,1.0,68,0.00,,---,0.00,VWS V14.01,2013-01-07 06:16:00,
2013-01-07 01:21:00,39.6,29.9,30.07,West,275,0.0,1.0,68,0.00,,---,0.00,VWS V14.01,2013-01-07 06:21:00,
2013-01-07 01:26:00,39.4,29.7,30.07,West,275,0.0,1.0,68,0.00,,---,0.00,VWS V14.01,2013-01-07 06:26:00,
2013-01-07 01:31:00,39.2,29.5,30.07,West,275,1.0,1.0,68,0.00,,---,0.00,VWS V14.01,2013-01-07 06:31:00,
2013-01-07 01:36:00,39.1,29.5,30.07,West,275,0.0,0.0,68,0.00,,---,0.00,VWS V14.01,2013-01-07 06:36:00,
2013-01-07 01:41:00,38.9,29.2,30.08,West,275,2.0,2.0,68,0.00,,---,0.00,VWS V14.01,2013-01-07 06:41:00,
2013-01-07 01:46:00,38.8,29.2,30.08,West,275,0.0,3.0,68,0.00,,---,0.00,VWS V14.01,2013-01-07 06:46:00,
2013-01-07 01:51:00,38.7,28.7,30.08,West,275,0.0,3.0,67,0.00,,---,0.00,VWS V14.01,2013-01-07 06:51:00,
2013-01-07 01:56:00,38.7,28.7,30.08,West,273,1.0,3.0,67,0.00,,---,0.00,VWS V14.01,2013-01-07 06:56:00,
2013-01-07 02:01:00,38.7,28.7,30.08,West,273,0.0,3.0,67,0.00,,---,0.00,VWS V14.01,2013-01-07 07:01:00,
2013-01-07 02:06:00,38.8,28.8,30.08,WNW,300,3.0,4.0,67,0.00,,---,0.00,VWS V14.01,2013-01-07 07:06:00,
2013-01-07 02:11:00,38.8,28.8,30.09,West,279,0.0,4.0,67,0.00,,---,0.00,VWS V14.01,2013-01-07 07:11:00,
2013-01-07 02:16:00,38.9,28.9,30.09,West,271,0.0,4.0,67,0.00,,---,0.00,VWS V14.01,2013-01-07 07:16:00,
2013-01-07 02:21:00,38.9,28.9,30.09,West,269,0.0,4.0,67,0.00,,---,0.00,VWS V14.01,2013-01-07 07:21:00,
2013-01-07 02:26:00,38.8,28.8,30.09,West,279,3.0,4.0,67,0.00,,---,0.00,VWS V14.01,2013-01-07 07:26:00,
2013-01-07 02:31:00,38.8,28.8,30.09,West,279,0.0,4.0,67,0.00,,---,0.00,VWS V14.01,2013-01-07 07:31:00,
2013-01-07 02:36:00,38.7,28.7,30.09,WNW,288,2.0,3.0,67,0.00,,---,0.00,VWS V14.01,2013-01-07 07:36:00,
2013-01-07 02:41:00,38.7,28.7,30.09,West,267,0.0,6.0,67,0.00,,---,0.00,VWS V14.01,2013-01-07 07:41:00,
2013-01-07 02:46:00,38.8,28.8,30.09,WNW,288,1.0,6.0,67,0.00,,---,0.00,VWS V14.01,2013-01-07 07:46:00,
2013-01-07 02:51:00,38.8,28.8,30.09,WNW,287,2.0,6.0,67,0.00,,---,0.00,VWS V14.01,2013-01-07 07:51:00,
2013-01-07 02:56:00,38.9,28.9,30.09,West,266,1.0,6.0,67,0.00,,---,0.00,VWS V14.01,2013-01-07 07:56:00,
2013-01-07 03:01:00,38.9,28.9,30.09,West,271,0.0,6.0,67,0.00,,---,0.00,VWS V14.01,2013-01-07 08:01:00,
2013-01-07 03:06:00,38.9,28.9,30.09,WNW,288,1.0,4.0,67,0.00,,---,0.00,VWS V14.01,2013-01-07 08:06:00,
2013-01-07 03:11:00,38.9,28.9,30.10,WNW,286,2.0,5.0,67,0.00,,---,0.00,VWS V14.01,2013-01-07 08:11:00,
2013-01-07 03:16:00,38.9,28.9,30.10,West,262,3.0,7.0,67,0.00,,---,0.00,VWS V14.01,2013-01-07 08:16:00,
2013-01-07 03:21:00,38.9,28.9,30.09,West,275,1.0,7.0,67,0.00,,---,0.00,VWS V14.01,2013-01-07 08:21:00,
2013-01-07 03:26:00,38.8,28.8,30.09,West,261,0.0,7.0,67,0.00,,---,0.00,VWS V14.01,2013-01-07 08:26:00,
2013-01-07 03:31:00,38.8,28.8,30.09,WNW,284,0.0,7.0,67,0.00,,---,0.00,VWS V14.01,2013-01-07 08:31:00,
2013-01-07 03:36:00,38.7,28.7,30.10,WNW,284,0.0,1.0,67,0.00,,---,0.00,VWS V14.01,2013-01-07 08:36:00,
2013-01-07 03:41:00,38.6,28.6,30.10,WNW,284,0.0,1.0,67,0.00,,---,0.00,VWS V14.01,2013-01-07 08:41:00,
2013-01-07 03:46:00,38.5,28.5,30.10,WNW,284,0.0,1.0,67,0.00,,---,0.00,VWS V14.01,2013-01-07 08:46:00,
2013-01-07 03:51:00,38.4,28.4,30.10,WNW,284,0.0,1.0,67,0.00,,---,0.00,VWS V14.01,2013-01-07 08:51:00,
2013-01-07 03:56:00,38.3,28.3,30.10,WNW,284,0.0,2.0,67,0.00,,---,0.00,VWS V14.01,2013-01-07 08:56:00,
2013-01-07 04:01:00,38.1,28.1,30.11,West,272,0.0,2.0,67,0.00,,---,0.00,VWS V14.01,2013-01-07 09:01:00,
2013-01-07 04:06:00,38.1,27.8,30.11,WNW,287,0.0,2.0,66,0.00,,---,0.00,VWS V14.01,2013-01-07 09:06:00,
2013-01-07 04:11:00,38.0,27.7,30.11,West,267,1.0,5.0,66,0.00,,---,0.00,VWS V14.01,2013-01-07 09:11:00,
2013-01-07 04:16:00,38.0,27.7,30.11,WSW,257,1.0,5.0,66,0.00,,---,0.00,VWS V14.01,2013-01-07 09:16:00,
2013-01-07 04:21:00,38.0,27.7,30.12,West,267,0.0,5.0,66,0.00,,---,0.00,VWS V14.01,2013-01-07 09:21:00,
2013-01-07 04:26:00,37.9,27.6,30.12,West,267,0.0,5.0,66,0.00,,---,0.00,VWS V14.01,2013-01-07 09:26:00,
2013-01-07 04:31:00,37.9,27.6,30.12,West,267,0.0,5.0,66,0.00,,---,0.00,VWS V14.01,2013-01-07 09:31:00,
2013-01-07 04:36:00,37.8,27.5,30.12,West,271,0.0,3.0,66,0.00,,---,0.00,VWS V14.01,2013-01-07 09:36:00,
2013-01-07 04:41:00,37.7,27.4,30.12,West,276,0.0,3.0,66,0.00,,---,0.00,VWS V14.01,2013-01-07 09:41:00,
2013-01-07 04:46:00,37.7,27.4,30.12,West,281,0.0,4.0,66,0.00,,---,0.00,VWS V14.01,2013-01-07 09:46:00,
2013-01-07 04:51:00,37.7,27.4,30.13,West,273,0.0,4.0,66,0.00,,---,0.00,VWS V14.01,2013-01-07 09:51:00,
2013-01-07 04:56:00,37.8,27.5,30.12,West,272,1.0,5.0,66,0.00,,---,0.00,VWS V14.01,2013-01-07 09:56:00,
2013-01-07 05:01:00,37.8,27.5,30.13,West,271,0.0,5.0,66,0.00,,---,0.00,VWS V14.01,2013-01-07 10:01:00,
2013-01-07 05:06:00,37.8,27.5,30.13,West,259,0.0,5.0,66,0.00,,---,0.00,VWS V14.01,2013-01-07 10:06:00,
2013-01-07 05:11:00,37.9,27.6,30.13,WSW,238,2.0,6.0,66,0.00,,---,0.00,VWS V14.01,2013-01-07 10:11:00,
2013-01-07 05:16:00,37.9,27.6,30.13,WNW,292,2.0,6.0,66,0.00,,---,0.00,VWS V14.01,2013-01-07 10:16:00,
2013-01-07 05:21:00,38.0,27.7,30.14,WNW,286,1.0,9.0,66,0.00,,---,0.00,VWS V14.01,2013-01-07 10:21:00,
2013-01-07 05:26:00,38.1,27.8,30.14,WNW,287,5.0,9.0,66,0.00,,---,0.00,VWS V14.01,2013-01-07 10:26:00,
2013-01-07 05:31:00,38.2,27.9,30.15,West,272,2.0,9.0,66,0.00,,---,0.00,VWS V14.01,2013-01-07 10:31:00,
2013-01-07 05:36:00,38.2,27.9,30.15,West,261,0.0,4.0,66,0.00,,---,0.00,VWS V14.01,2013-01-07 10:36:00,
2013-01-07 05:41:00,38.2,27.9,30.15,WNW,298,4.0,7.0,66,0.00,,---,0.00,VWS V14.01,2013-01-07 10:41:00,
2013-01-07 05:46:00,38.2,27.9,30.15,West,275,3.0,7.0,66,0.00,,---,0.00,VWS V14.01,2013-01-07 10:46:00,
2013-01-07 05:51:00,38.2,27.9,30.16,West,273,0.0,7.0,66,0.00,,---,0.00,VWS V14.01,2013-01-07 10:51:00,
2013-01-07 05:56:00,38.3,28.0,30.16,West,279,1.0,7.0,66,0.00,,---,0.00,VWS V14.01,2013-01-07 10:56:00,
2013-01-07 06:01:00,38.3,28.0,30.16,West,276,0.0,7.0,66,0.00,,---,0.00,VWS V14.01,2013-01-07 11:01:00,
2013-01-07 06:06:00,38.4,28.0,30.17,West,271,2.0,4.0,66,0.00,,---,0.00,VWS V14.01,2013-01-07 11:06:00,
2013-01-07 06:11:00,38.5,28.1,30.17,WNW,295,5.0,5.0,66,0.00,,---,0.00,VWS V14.01,2013-01-07 11:11:00,
2013-01-07 06:16:00,38.7,28.3,30.17,West,281,1.0,5.0,66,0.00,,---,0.00,VWS V14.01,2013-01-07 11:16:00,
2013-01-07 06:21:00,38.8,28.4,30.17,WNW,299,0.0,5.0,66,0.00,,---,0.00,VWS V14.01,2013-01-07 11:21:00,
2013-01-07 06:26:00,38.8,28.4,30.18,WNW,299,0.0,5.0,66,0.00,,---,0.00,VWS V14.01,2013-01-07 11:26:00,
2013-01-07 06:31:00,38.8,28.4,30.18,WNW,299,0.0,5.0,66,0.00,,---,0.00,VWS V14.01,2013-01-07 11:31:00,
2013-01-07 06:36:00,38.7,28.3,30.18,WNW,298,0.0,3.0,66,0.00,,---,0.00,VWS V14.01,2013-01-07 11:36:00,
2013-01-07 06:41:00,38.6,28.2,30.18,WNW,297,4.0,4.0,66,0.00,,---,0.00,VWS V14.01,2013-01-07 11:41:00,
2013-01-07 06:46:00,38.6,28.2,30.19,West,271,1.0,5.0,66,0.00,,---,0.00,VWS V14.01,2013-01-07 11:46:00,
2013-01-07 06:51:00,38.3,28.0,30.19,West,271,0.0,5.0,66,0.00,,---,0.00,VWS V14.01,2013-01-07 11:51:00,
2013-01-07 06:56:00,38.1,27.8,30.19,West,271,0.0,5.0,66,0.00,,---,0.00,VWS V14.01,2013-01-07 11:56:00,
2013-01-07 07:01:00,37.9,27.6,30.20,WNW,282,1.0,5.0,66,0.00,,---,0.00,VWS V14.01,2013-01-07 12:01:00,
2013-01-07 07:06:00,37.8,27.5,30.20,WSW,258,0.0,5.0,66,0.00,,---,0.00,VWS V14.01,2013-01-07 12:06:00,
2013-01-07 07:11:00,37.8,27.5,30.20,West,270,2.0,5.0,66,0.00,,---,0.00,VWS V14.01,2013-01-07 12:11:00,
2013-01-07 07:16:00,37.9,27.6,30.20,West,273,0.0,5.0,66,0.00,,---,0.00,VWS V14.01,2013-01-07 12:16:00,
2013-01-07 07:21:00,38.0,27.7,30.20,WNW,284,4.0,6.0,66,0.00,,---,0.00,VWS V14.01,2013-01-07 12:21:00,
2013-01-07 07:26:00,38.2,27.9,30.21,West,265,0.0,6.0,66,0.00,,---,0.00,VWS V14.01,2013-01-07 12:26:00,
2013-01-07 07:31:00,38.3,28.0,30.21,West,263,2.0,6.0,66,0.00,,---,0.00,VWS V14.01,2013-01-07 12:31:00,
2013-01-07 07:36:00,38.6,27.9,30.21,SW,231,3.0,5.0,65,0.00,,---,0.00,VWS V14.01,2013-01-07 12:36:00,
2013-01-07 07:41:00,38.9,28.1,30.22,WNW,286,3.0,5.0,65,0.00,,---,0.00,VWS V14.01,2013-01-07 12:41:00,
2013-01-07 07:46:00,39.2,28.8,30.22,WNW,299,0.0,6.0,66,0.00,,---,0.00,VWS V14.01,2013-01-07 12:46:00,
2013-01-07 07:51:00,39.5,29.1,30.22,WSW,253,2.0,9.0,66,0.00,,---,0.00,VWS V14.01,2013-01-07 12:51:00,
2013-01-07 07:56:00,39.7,29.3,30.22,West,276,0.0,9.0,66,0.00,,---,0.00,VWS V14.01,2013-01-07 12:56:00,
2013-01-07 08:01:00,39.9,29.5,30.22,WNW,303,0.0,9.0,66,0.00,,---,0.00,VWS V14.01,2013-01-07 13:01:00,
2013-01-07 08:06:00,40.1,29.7,30.23,WNW,283,1.0,5.0,66,0.00,,---,0.00,VWS V14.01,2013-01-07 13:06:00,
2013-01-07 08:11:00,40.4,30.0,30.23,WNW,284,4.0,9.0,66,0.00,,---,0.00,VWS V14.01,2013-01-07 13:11:00,
2013-01-07 08:16:00,40.6,30.1,30.23,West,269,1.0,9.0,66,0.00,,---,0.00,VWS V14.01,2013-01-07 13:16:00,
2013-01-07 08:21:00,40.8,30.3,30.24,WSW,244,3.0,9.0,66,0.00,,---,0.00,VWS V14.01,2013-01-07 13:21:00,
2013-01-07 08:26:00,41.1,30.6,30.24,WNW,287,5.0,9.0,66,0.00,,---,0.00,VWS V14.01,2013-01-07 13:26:00,
2013-01-07 08:31:00,41.3,30.8,30.25,WNW,285,0.0,9.0,66,0.00,,---,0.00,VWS V14.01,2013-01-07 13:31:00,
2013-01-07 08:36:00,41.6,31.5,30.25,West,269,3.0,5.0,67,0.00,,---,0.00,VWS V14.01,2013-01-07 13:36:00,
2013-01-07 08:41:00,41.8,31.7,30.25,WSW,257,0.0,9.0,67,0.00,,---,0.00,VWS V14.01,2013-01-07 13:41:00,
2013-01-07 08:46:00,42.1,32.0,30.25,WSW,252,2.0,9.0,67,0.00,,---,0.00,VWS V14.01,2013-01-07 13:46:00,
2013-01-07 08:51:00,42.4,32.2,30.25,West,276,5.0,9.0,67,0.00,,---,0.00,VWS V14.01,2013-01-07 13:51:00,
2013-01-07 08:56:00,42.7,32.5,30.26,WSW,248,2.0,11.0,67,0.00,,---,0.00,VWS V14.01,2013-01-07 13:56:00,
2013-01-07 09:01:00,43.0,32.8,30.26,WNW,299,3.0,11.0,67,0.00,,---,0.00,VWS V14.01,2013-01-07 14:01:00,
2013-01-07 09:06:00,43.3,33.1,30.26,WSW,256,0.0,5.0,67,0.00,,---,0.00,VWS V14.01,2013-01-07 14:06:00,
2013-01-07 09:11:00,43.7,33.5,30.27,WSW,247,0.0,5.0,67,0.00,,---,0.00,VWS V14.01,2013-01-07 14:11:00,
2013-01-07 09:16:00,44.1,33.9,30.27,WSW,245,1.0,5.0,67,0.00,,---,0.00,VWS V14.01,2013-01-07 14:16:00,
2013-01-07 09:21:00,44.4,34.1,30.27,North,5,1.0,7.0,67,0.00,,---,0.00,VWS V14.01,2013-01-07 14:21:00,
2013-01-07 09:26:00,44.7,34.0,30.27,WSW,250,10.0,10.0,66,0.00,,---,0.00,VWS V14.01,2013-01-07 14:26:00,
2013-01-07 09:31:00,45.0,34.3,30.28,NW,313,0.0,10.0,66,0.00,,---,0.00,VWS V14.01,2013-01-07 14:31:00,
2013-01-07 09:36:00,45.3,34.6,30.28,SSW,198,0.0,6.0,66,0.00,,---,0.00,VWS V14.01,2013-01-07 14:36:00,
2013-01-07 09:41:00,45.4,34.3,30.28,WSW,246,0.0,7.0,65,0.00,,---,0.00,VWS V14.01,2013-01-07 14:41:00,
2013-01-07 09:46:00,45.5,34.4,30.29,ENE,57,0.0,7.0,65,0.00,,---,0.00,VWS V14.01,2013-01-07 14:46:00,
2013-01-07 09:51:00,45.7,34.6,30.28,SW,233,5.0,7.0,65,0.00,,---,0.00,VWS V14.01,2013-01-07 14:51:00,
2013-01-07 09:56:00,45.7,34.2,30.29,West,268,0.0,7.0,64,0.00,,---,0.00,VWS V14.01,2013-01-07 14:56:00,
2013-01-07 10:01:00,45.8,34.3,30.29,North,360,0.0,7.0,64,0.00,,---,0.00,VWS V14.01,2013-01-07 15:01:00,
2013-01-07 10:06:00,45.8,33.9,30.29,NNW,348,0.0,5.0,63,0.00,,---,0.00,VWS V14.01,2013-01-07 15:06:00,
2013-01-07 10:11:00,45.8,33.9,30.29,NE,46,0.0,5.0,63,0.00,,---,0.00,VWS V14.01,2013-01-07 15:11:00,
2013-01-07 10:16:00,45.9,33.6,30.30,NW,304,0.0,6.0,62,0.00,,---,0.00,VWS V14.01,2013-01-07 15:16:00,
2013-01-07 10:21:00,45.9,33.2,30.30,NE,46,0.0,7.0,61,0.00,,---,0.00,VWS V14.01,2013-01-07 15:21:00,
2013-01-07 10:26:00,46.2,33.5,30.30,WSW,237,2.0,11.0,61,0.00,,---,0.00,VWS V14.01,2013-01-07 15:26:00,
2013-01-07 10:31:00,46.1,32.6,30.30,SW,217,0.0,11.0,59,0.00,,---,0.00,VWS V14.01,2013-01-07 15:31:00,
2013-01-07 10:36:00,46.3,32.8,30.31,North,355,1.0,7.0,59,0.00,,---,0.00,VWS V14.01,2013-01-07 15:36:00,
2013-01-07 10:41:00,46.3,32.3,30.31,NNE,20,0.0,7.0,58,0.00,,---,0.00,VWS V14.01,2013-01-07 15:41:00,
2013-01-07 10:46:00,46.4,32.4,30.31,North,360,0.0,7.0,58,0.00,,---,0.00,VWS V14.01,2013-01-07 15:46:00,
2013-01-07 10:51:00,46.7,32.7,30.30,North,355,0.0,7.0,58,0.00,,---,0.00,VWS V14.01,2013-01-07 15:51:00,
2013-01-07 10:56:00,47.0,32.6,30.30,NW,325,2.0,7.0,57,0.00,,---,0.00,VWS V14.01,2013-01-07 15:56:00,
2013-01-07 11:01:00,47.4,32.5,30.31,NNW,336,0.0,8.0,56,0.00,,---,0.00,VWS V14.01,2013-01-07 16:01:00,
2013-01-07 11:06:00,47.6,32.7,30.31,WSW,251,1.0,7.0,56,0.00,,---,0.00,VWS V14.01,2013-01-07 16:06:00,
2013-01-07 11:11:00,47.8,32.0,30.31,NW,319,4.0,18.0,54,0.00,,---,0.00,VWS V14.01,2013-01-07 16:11:00,
2013-01-07 11:16:00,47.8,32.4,30.31,WSW,237,5.0,18.0,55,0.00,,---,0.00,VWS V14.01,2013-01-07 16:16:00,
2013-01-07 11:21:00,48.0,32.2,30.31,WNW,294,0.0,18.0,54,0.00,,---,0.00,VWS V14.01,2013-01-07 16:21:00,
2013-01-07 11:26:00,48.2,33.3,30.30,West,260,0.0,18.0,56,0.00,,---,0.00,VWS V14.01,2013-01-07 16:26:00,
2013-01-07 11:31:00,48.3,32.0,30.30,SSW,198,0.0,18.0,53,0.00,,---,0.00,VWS V14.01,2013-01-07 16:31:00,
2013-01-07 11:36:00,48.2,31.9,30.31,WNW,292,2.0,7.0,53,0.00,,---,0.00,VWS V14.01,2013-01-07 16:36:00,
2013-01-07 11:41:00,48.4,32.1,30.31,NNE,17,1.0,7.0,53,0.00,,---,0.00,VWS V14.01,2013-01-07 16:41:00,
2013-01-07 11:46:00,48.4,32.1,30.30,WSW,240,0.0,7.0,53,0.00,,---,0.00,VWS V14.01,2013-01-07 16:46:00,
2013-01-07 11:51:00,48.8,32.4,30.30,WSW,250,3.0,7.0,53,0.00,,---,0.00,VWS V14.01,2013-01-07 16:51:00,
2013-01-07 11:56:00,48.6,31.3,30.30,SW,227,5.0,11.0,51,0.00,,---,0.00,VWS V14.01,2013-01-07 16:56:00,
2013-01-07 12:01:00,48.4,31.6,30.30,NW,315,0.0,11.0,52,0.00,,---,0.00,VWS V14.01,2013-01-07 17:01:00,
2013-01-07 12:06:00,48.3,31.5,30.31,West,265,1.0,7.0,52,0.00,,---,0.00,VWS V14.01,2013-01-07 17:06:00,
2013-01-07 12:11:00,48.3,31.0,30.31,NW,317,0.0,13.0,51,0.00,,---,0.00,VWS V14.01,2013-01-07 17:11:00,
2013-01-07 12:16:00,48.2,30.9,30.31,WSW,255,6.0,13.0,51,0.00,,---,0.00,VWS V14.01,2013-01-07 17:16:00,
2013-01-07 12:21:00,48.2,30.9,30.31,WSW,242,4.0,13.0,51,0.00,,---,0.00,VWS V14.01,2013-01-07 17:21:00,
2013-01-07 12:26:00,48.1,30.8,30.31,WSW,258,8.0,13.0,51,0.00,,---,0.00,VWS V14.01,2013-01-07 17:26:00,
2013-01-07 12:31:00,48.2,30.9,30.31,NW,307,1.0,13.0,51,0.00,,---,0.00,VWS V14.01,2013-01-07 17:31:00,
2013-01-07 12:36:00,48.4,31.1,30.31,WSW,250,0.0,13.0,51,0.00,,---,0.00,VWS V14.01,2013-01-07 17:36:00,
2013-01-07 12:41:00,48.8,31.0,30.32,WNW,288,4.0,13.0,50,0.00,,---,0.00,VWS V14.01,2013-01-07 17:41:00,
2013-01-07 12:46:00,48.9,30.6,30.32,SW,225,2.0,13.0,49,0.00,,---,0.00,VWS V14.01,2013-01-07 17:46:00,
2013-01-07 12:51:00,48.8,31.0,30.32,West,269,9.0,13.0,50,0.00,,---,0.00,VWS V14.01,2013-01-07 17:51:00,
2013-01-07 12:56:00,48.8,30.5,30.32,West,259,0.0,13.0,49,0.00,,---,0.00,VWS V14.01,2013-01-07 17:56:00,
2013-01-07 13:00:00,48.8,30.5,30.32,NNE,17,0.0,13.0,49,0.00,,---,0.00,VWS V14.01,2013-01-07 18:00:00,
2013-01-07 13:05:00,48.9,30.6,30.32,WNW,298,0.0,9.0,49,0.00,,---,0.00,VWS V14.01,2013-01-07 18:05:00,
2013-01-07 13:10:00,49.2,30.4,30.32,WNW,286,4.0,9.0,48,0.00,,---,0.00,VWS V14.01,2013-01-07 18:10:00,
2013-01-07 13:15:00,49.0,30.2,30.32,WSW,251,1.0,11.0,48,0.00,,---,0.00,VWS V14.01,2013-01-07 18:15:00,
2013-01-07 13:21:00,49.0,30.2,30.32,WNW,287,1.0,11.0,48,0.00,,---,0.00,VWS V14.01,2013-01-07 18:21:00,
2013-01-07 13:25:00,49.1,29.8,30.32,West,259,0.0,13.0,47,0.00,,---,0.00,VWS V14.01,2013-01-07 18:25:00,
2013-01-07 13:30:00,48.9,29.6,30.32,North,355,2.0,13.0,47,0.00,,---,0.00,VWS V14.01,2013-01-07 18:30:00,
2013-01-07 13:35:00,48.7,29.9,30.32,NNW,348,1.0,6.0,48,0.00,,---,0.00,VWS V14.01,2013-01-07 18:35:00,
2013-01-07 13:40:00,49.0,30.2,30.32,West,271,3.0,6.0,48,0.00,,---,0.00,VWS V14.01,2013-01-07 18:40:00,
2013-01-07 13:45:00,49.2,29.9,30.32,WNW,283,1.0,7.0,47,0.00,,---,0.00,VWS V14.01,2013-01-07 18:45:00,
2013-01-07 13:50:00,49.3,29.4,30.33,West,263,0.0,12.0,46,0.00,,---,0.00,VWS V14.01,2013-01-07 18:50:00,
2013-01-07 13:55:00,49.6,30.2,30.33,West,265,3.0,12.0,47,0.00,,---,0.00,VWS V14.01,2013-01-07 18:55:00,
2013-01-07 14:00:00,49.8,29.9,30.33,WSW,255,4.0,12.0,46,0.00,,---,0.00,VWS V14.01,2013-01-07 19:00:00,
2013-01-07 14:05:00,49.8,29.9,30.33,WSW,246,3.0,5.0,46,0.00,,---,0.00,VWS V14.01,2013-01-07 19:05:00,
2013-01-07 14:10:00,49.7,29.8,30.33,SSW,198,3.0,9.0,46,0.00,,---,0.00,VWS V14.01,2013-01-07 19:10:00,
2013-01-07 14:15:00,49.7,29.8,30.33,NNE,21,1.0,9.0,46,0.00,,---,0.00,VWS V14.01,2013-01-07 19:15:00,
2013-01-07 14:20:00,49.7,29.8,30.33,NE,42,0.0,9.0,46,0.00,,---,0.00,VWS V14.01,2013-01-07 19:20:00,
2013-01-07 14:25:00,49.9,30.0,30.33,West,281,0.0,9.0,46,0.00,,---,0.00,VWS V14.01,2013-01-07 19:25:00,
2013-01-07 14:30:00,50.1,30.1,30.34,West,279,0.0,9.0,46,0.00,,---,0.00,VWS V14.01,2013-01-07 19:30:00,
2013-01-07 14:35:00,50.0,30.0,30.34,WSW,250,4.0,5.0,46,0.00,,---,0.00,VWS V14.01,2013-01-07 19:35:00,
2013-01-07 14:42:00,49.7,29.2,30.34,WSW,246,4.0,4.0,45,0.00,,---,0.00,VWS V14.01,2013-01-07 19:42:00,
2013-01-07 14:47:00,49.6,29.7,30.34,West,271,1.0,9.0,46,0.00,,---,0.00,VWS V14.01,2013-01-07 19:47:00,
2013-01-07 14:52:00,49.4,29.5,30.35,West,266,0.0,9.0,46,0.00,,---,0.00,VWS V14.01,2013-01-07 19:52:00,
2013-01-07 14:57:00,49.6,29.7,30.35,West,273,0.0,9.0,46,0.00,,---,0.00,VWS V14.01,2013-01-07 19:57:00,
2013-01-07 15:02:00,49.7,29.8,30.35,NE,40,0.0,0.0,46,0.00,,---,0.00,VWS V14.01,2013-01-07 20:02:00,
2013-01-07 15:07:00,49.5,29.6,30.35,WSW,252,2.0,9.0,46,0.00,,---,0.00,VWS V14.01,2013-01-07 20:07:00,
2013-01-07 15:12:00,49.3,28.9,30.35,West,275,0.0,9.0,45,0.00,,---,0.00,VWS V14.01,2013-01-07 20:12:00,
2013-01-07 15:17:00,49.1,29.2,30.35,West,275,0.0,9.0,46,0.00,,---,0.00,VWS V14.01,2013-01-07 20:17:00,
2013-01-07 15:19:00,49.2,29.3,30.35,West,275,0.0,9.0,46,0.00,,---,0.00,VWS V14.01,2013-01-07 20:19:00,
2013-01-07 15:24:00,49.1,29.2,30.35,WNW,292,0.0,9.0,46,0.00,,---,0.00,VWS V14.01,2013-01-07 20:24:00,
2013-01-07 15:29:00,49.1,29.2,30.36,WNW,295,0.0,9.0,46,0.00,,---,0.00,VWS V14.01,2013-01-07 20:29:00,
2013-01-07 15:34:00,49.2,29.3,30.36,NNW,327,0.0,0.0,46,0.00,,---,0.00,VWS V14.01,2013-01-07 20:34:00,
2013-01-07 15:39:00,49.1,28.7,30.36,NNE,25,0.0,2.0,45,0.00,,---,0.00,VWS V14.01,2013-01-07 20:39:00,
2013-01-07 15:44:00,48.9,29.0,30.36,NNE,25,0.0,2.0,46,0.00,,---,0.00,VWS V14.01,2013-01-07 20:44:00,
2013-01-07 15:49:00,49.0,28.6,30.37,WSW,256,1.0,4.0,45,0.00,,---,0.00,VWS V14.01,2013-01-07 20:49:00,
2013-01-07 15:54:00,49.0,28.6,30.37,WSW,256,0.0,4.0,45,0.00,,---,0.00,VWS V14.01,2013-01-07 20:54:00,
2013-01-07 15:59:00,48.8,29.0,30.37,West,261,1.0,4.0,46,0.00,,---,0.00,VWS V14.01,2013-01-07 20:59:00,
2013-01-07 16:04:00,48.6,28.8,30.38,West,261,0.0,0.0,46,0.00,,---,0.00,VWS V14.01,2013-01-07 21:04:00,
2013-01-07 16:09:00,48.5,28.1,30.37,WSW,254,0.0,6.0,45,0.00,,---,0.00,VWS V14.01,2013-01-07 21:09:00,
2013-01-07 16:14:00,48.3,28.5,30.37,West,277,0.0,6.0,46,0.00,,---,0.00,VWS V14.01,2013-01-07 21:14:00,
2013-01-07 16:19:00,48.0,28.2,30.37,WNW,300,0.0,6.0,46,0.00,,---,0.00,VWS V14.01,2013-01-07 21:19:00,
2013-01-07 16:24:00,47.6,28.4,30.37,WNW,300,0.0,6.0,47,0.00,,---,0.00,VWS V14.01,2013-01-07 21:24:00,
2013-01-07 16:29:00,47.2,28.0,30.38,WNW,300,0.0,6.0,47,0.00,,---,0.00,VWS V14.01,2013-01-07 21:29:00,
2013-01-07 16:34:00,46.8,28.2,30.38,WNW,299,0.0,0.0,48,0.00,,---,0.00,VWS V14.01,2013-01-07 21:34:00,
2013-01-07 16:39:00,46.5,27.9,30.38,WNW,299,0.0,0.0,48,0.00,,---,0.00,VWS V14.01,2013-01-07 21:39:00,
2013-01-07 16:44:00,46.1,27.5,30.38,WNW,300,0.0,2.0,48,0.00,,---,0.00,VWS V14.01,2013-01-07 21:44:00,
2013-01-07 16:49:00,45.8,27.7,30.38,WNW,299,0.0,2.0,49,0.00,,---,0.00,VWS V14.01,2013-01-07 21:49:00,
2013-01-07 16:54:00,45.4,28.4,30.38,WNW,300,0.0,2.0,51,0.00,,---,0.00,VWS V14.01,2013-01-07 21:54:00,
2013-01-07 16:59:00,45.0,28.0,30.39,WNW,300,0.0,2.0,51,0.00,,---,0.00,VWS V14.01,2013-01-07 21:59:00,
2013-01-07 17:04:00,44.7,27.7,30.39,WNW,300,0.0,0.0,51,0.00,,---,0.00,VWS V14.01,2013-01-07 22:04:00,
2013-01-07 17:09:00,44.4,27.4,30.39,WNW,299,0.0,0.0,51,0.00,,---,0.00,VWS V14.01,2013-01-07 22:09:00,
2013-01-07 17:14:00,44.0,27.5,30.39,WNW,300,0.0,0.0,52,0.00,,---,0.00,VWS V14.01,2013-01-07 22:14:00,
2013-01-07 17:19:00,43.6,27.6,30.39,WNW,300,0.0,0.0,53,0.00,,---,0.00,VWS V14.01,2013-01-07 22:19:00,
2013-01-07 17:24:00,43.3,27.3,30.40,WNW,300,0.0,0.0,53,0.00,,---,0.00,VWS V14.01,2013-01-07 22:24:00,
2013-01-07 17:29:00,42.9,27.4,30.40,WNW,299,0.0,0.0,54,0.00,,---,0.00,VWS V14.01,2013-01-07 22:29:00,
2013-01-07 17:34:00,42.4,27.0,30.40,WNW,300,0.0,0.0,54,0.00,,---,0.00,VWS V14.01,2013-01-07 22:34:00,
2013-01-07 17:39:00,42.2,26.8,30.40,WNW,300,0.0,0.0,54,0.00,,---,0.00,VWS V14.01,2013-01-07 22:39:00,
2013-01-07 17:44:00,41.9,26.9,30.40,WNW,300,0.0,0.0,55,0.00,,---,0.00,VWS V14.01,2013-01-07 22:44:00,
2013-01-07 17:49:00,41.6,26.6,30.40,WNW,299,0.0,0.0,55,0.00,,---,0.00,VWS V14.01,2013-01-07 22:49:00,
2013-01-07 17:54:00,41.3,26.8,30.40,WNW,299,0.0,0.0,56,0.00,,---,0.00,VWS V14.01,2013-01-07 22:54:00,
2013-01-07 17:58:00,41.0,28.2,30.40,WNW,300,0.0,0.0,60,0.00,,---,0.00,VWS V14.01,2013-01-07 22:58:00,
2013-01-07 18:03:00,40.7,27.1,30.40,WNW,300,0.0,0.0,58,0.00,,---,0.00,VWS V14.01,2013-01-07 23:03:00,
2013-01-07 18:08:00,40.5,26.9,30.40,WNW,300,0.0,0.0,58,0.00,,---,0.00,VWS V14.01,2013-01-07 23:08:00,
2013-01-07 18:13:00,40.2,27.4,30.40,WNW,299,0.0,0.0,60,0.00,,---,0.00,VWS V14.01,2013-01-07 23:13:00,
2013-01-07 18:18:00,39.9,27.2,30.40,WNW,299,0.0,0.0,60,0.00,,---,0.00,VWS V14.01,2013-01-07 23:18:00,
2013-01-07 18:23:00,39.4,27.1,30.40,WNW,300,0.0,0.0,61,0.00,,---,0.00,VWS V14.01,2013-01-07 23:23:00,
2013-01-07 18:28:00,39.1,26.8,30.40,WNW,300,0.0,0.0,61,0.00,,---,0.00,VWS V14.01,2013-01-07 23:28:00,
2013-01-07 18:33:00,38.8,26.9,30.40,WNW,299,0.0,0.0,62,0.00,,---,0.00,VWS V14.01,2013-01-07 23:33:00,
2013-01-07 18:38:00,38.7,26.8,30.40,WNW,300,0.0,0.0,62,0.00,,---,0.00,VWS V14.01,2013-01-07 23:38:00,
2013-01-07 18:43:00,38.5,27.0,30.40,WNW,299,0.0,0.0,63,0.00,,---,0.00,VWS V14.01,2013-01-07 23:43:00,
2013-01-07 18:48:00,38.4,26.9,30.40,WNW,300,0.0,0.0,63,0.00,,---,0.00,VWS V14.01,2013-01-07 23:48:00,
2013-01-07 18:53:00,38.2,27.1,30.40,WNW,300,0.0,0.0,64,0.00,,---,0.00,VWS V14.01,2013-01-07 23:53:00,
2013-01-07 18:58:00,37.9,27.2,30.41,WNW,300,0.0,0.0,65,0.00,,---,0.00,VWS V14.01,2013-01-07 23:58:00,
2013-01-07 19:03:00,37.7,27.0,30.41,WNW,299,0.0,0.0,65,0.00,,---,0.00,VWS V14.01,2013-01-08 00:03:00,
2013-01-07 19:08:00,37.4,26.7,30.41,WNW,299,0.0,0.0,65,0.00,,---,0.00,VWS V14.01,2013-01-08 00:08:00,
2013-01-07 19:13:00,37.3,27.0,30.41,WNW,299,0.0,0.0,66,0.00,,---,0.00,VWS V14.01,2013-01-08 00:13:00,
2013-01-07 19:18:00,37.2,27.3,30.40,WNW,299,0.0,0.0,67,0.00,,---,0.00,VWS V14.01,2013-01-08 00:18:00,
2013-01-07 19:23:00,37.2,27.3,30.40,WNW,300,0.0,0.0,67,0.00,,---,0.00,VWS V14.01,2013-01-08 00:23:00,
2013-01-07 19:28:00,37.3,27.7,30.40,WNW,300,0.0,2.0,68,0.00,,---,0.00,VWS V14.01,2013-01-08 00:28:00,
2013-01-07 19:33:00,37.3,27.7,30.40,WNW,299,0.0,0.0,68,0.00,,---,0.00,VWS V14.01,2013-01-08 00:33:00,
2013-01-07 19:38:00,37.4,27.8,30.40,WNW,299,0.0,0.0,68,0.00,,---,0.00,VWS V14.01,2013-01-08 00:38:00,
2013-01-07 19:43:00,37.5,27.9,30.40,WNW,300,2.0,3.0,68,0.00,,---,0.00,VWS V14.01,2013-01-08 00:43:00,
2013-01-07 19:48:00,37.6,28.0,30.40,WNW,300,0.0,3.0,68,0.00,,---,0.00,VWS V14.01,2013-01-08 00:48:00,
2013-01-07 19:53:00,37.6,28.0,30.40,WNW,300,0.0,3.0,68,0.00,,---,0.00,VWS V14.01,2013-01-08 00:53:00,
2013-01-07 19:58:00,37.8,28.2,30.40,WNW,300,0.0,3.0,68,0.00,,---,0.00,VWS V14.01,2013-01-08 00:58:00,
2013-01-07 20:03:00,37.9,28.3,30.40,WNW,299,0.0,0.0,68,0.00,,---,0.00,VWS V14.01,2013-01-08 01:03:00,
2013-01-07 20:08:00,37.9,27.9,30.40,WNW,300,0.0,0.0,67,0.00,,---,0.00,VWS V14.01,2013-01-08 01:08:00,
2013-01-07 20:13:00,37.9,28.3,30.41,WNW,300,1.0,2.0,68,0.00,,---,0.00,VWS V14.01,2013-01-08 01:13:00,
2013-01-07 20:18:00,37.9,28.3,30.40,WNW,300,0.0,2.0,68,0.00,,---,0.00,VWS V14.01,2013-01-08 01:18:00,
2013-01-07 20:23:00,37.9,28.3,30.40,WNW,300,0.0,2.0,68,0.00,,---,0.00,VWS V14.01,2013-01-08 01:23:00,
2013-01-07 20:28:00,37.9,28.3,30.40,WNW,300,0.0,2.0,68,0.00,,---,0.00,VWS V14.01,2013-01-08 01:28:00,
2013-01-07 20:33:00,37.9,28.3,30.40,WNW,300,0.0,0.0,68,0.00,,---,0.00,VWS V14.01,2013-01-08 01:33:00,
2013-01-07 20:38:00,37.7,28.1,30.40,WNW,300,0.0,0.0,68,0.00,,---,0.00,VWS V14.01,2013-01-08 01:38:00,
2013-01-07 20:43:00,37.4,27.5,30.40,WNW,300,0.0,0.0,67,0.00,,---,0.00,VWS V14.01,2013-01-08 01:43:00,
2013-01-07 20:48:00,37.1,27.2,30.40,WNW,299,0.0,0.0,67,0.00,,---,0.00,VWS V14.01,2013-01-08 01:48:00,
2013-01-07 20:53:00,36.7,27.1,30.40,WNW,300,0.0,0.0,68,0.00,,---,0.00,VWS V14.01,2013-01-08 01:53:00,
2013-01-07 20:58:00,36.3,26.8,30.40,WNW,300,0.0,0.0,68,0.00,,---,0.00,VWS V14.01,2013-01-08 01:58:00,
2013-01-07 21:03:00,36.0,26.5,30.39,WNW,300,0.0,0.0,68,0.00,,---,0.00,VWS V14.01,2013-01-08 02:03:00,
2013-01-07 21:08:00,35.7,26.5,30.40,WNW,300,0.0,0.0,69,0.00,,---,0.00,VWS V14.01,2013-01-08 02:08:00,
2013-01-07 21:13:00,35.3,26.2,30.40,WNW,300,0.0,0.0,69,0.00,,---,0.00,VWS V14.01,2013-01-08 02:13:00,
2013-01-07 21:18:00,35.0,25.9,30.40,WNW,299,0.0,0.0,69,0.00,,---,0.00,VWS V14.01,2013-01-08 02:18:00,
2013-01-07 21:23:00,34.5,25.4,30.39,WNW,299,0.0,0.0,69,0.00,,---,0.00,VWS V14.01,2013-01-08 02:23:00,
2013-01-07 21:28:00,34.4,25.3,30.40,WNW,300,0.0,0.0,69,0.00,,---,0.00,VWS V14.01,2013-01-08 02:28:00,
2013-01-07 21:33:00,34.1,24.7,30.39,WNW,299,0.0,0.0,68,0.00,,---,0.00,VWS V14.01,2013-01-08 02:33:00,
2013-01-07 21:38:00,33.8,24.4,30.39,WNW,300,0.0,0.0,68,0.00,,---,0.00,VWS V14.01,2013-01-08 02:38:00,
2013-01-07 21:43:00,33.6,24.2,30.40,WNW,299,0.0,0.0,68,0.00,,---,0.00,VWS V14.01,2013-01-08 02:43:00,
2013-01-07 21:48:00,33.4,24.0,30.40,WNW,299,0.0,0.0,68,0.00,,---,0.00,VWS V14.01,2013-01-08 02:48:00,
2013-01-07 21:53:00,33.3,23.9,30.39,WNW,299,0.0,0.0,68,0.00,,---,0.00,VWS V14.01,2013-01-08 02:53:00,
2013-01-07 21:58:00,33.1,23.7,30.39,WNW,300,0.0,0.0,68,0.00,,---,0.00,VWS V14.01,2013-01-08 02:58:00,
2013-01-07 22:03:00,32.9,23.5,30.39,WNW,300,0.0,0.0,68,0.00,,---,0.00,VWS V14.01,2013-01-08 03:03:00,
2013-01-07 22:08:00,32.8,23.1,30.40,WNW,300,0.0,0.0,67,0.00,,---,0.00,VWS V14.01,2013-01-08 03:08:00,
2013-01-07 22:13:00,32.6,22.9,30.40,WNW,299,0.0,0.0,67,0.00,,---,0.00,VWS V14.01,2013-01-08 03:13:00,
2013-01-07 22:18:00,32.4,22.7,30.40,WNW,300,0.0,0.0,67,0.00,,---,0.00,VWS V14.01,2013-01-08 03:18:00,
2013-01-07 22:23:00,32.3,22.6,30.40,WNW,300,0.0,0.0,67,0.00,,---,0.00,VWS V14.01,2013-01-08 03:23:00,
2013-01-07 22:28:00,32.1,22.4,30.40,WNW,300,0.0,0.0,67,0.00,,---,0.00,VWS V14.01,2013-01-08 03:28:00,
2013-01-07 22:33:00,32.0,22.6,30.40,WNW,299,0.0,0.0,68,0.00,,---,0.00,VWS V14.01,2013-01-08 03:33:00,
2013-01-07 22:38:00,31.8,22.1,30.40,WNW,300,0.0,0.0,67,0.00,,---,0.00,VWS V14.01,2013-01-08 03:38:00,
2013-01-07 22:43:00,31.7,22.0,30.40,WNW,300,0.0,0.0,67,0.00,,---,0.00,VWS V14.01,2013-01-08 03:43:00,
2013-01-07 22:48:00,31.6,21.9,30.40,WNW,299,0.0,0.0,67,0.00,,---,0.00,VWS V14.01,2013-01-08 03:48:00,
2013-01-07 22:53:00,31.4,21.7,30.40,WNW,300,0.0,0.0,67,0.00,,---,0.00,VWS V14.01,2013-01-08 03:53:00,
2013-01-07 22:58:00,31.3,21.6,30.40,WNW,300,0.0,0.0,67,0.00,,---,0.00,VWS V14.01,2013-01-08 03:58:00,
2013-01-07 23:03:00,31.2,21.5,30.40,WNW,300,0.0,0.0,67,0.00,,---,0.00,VWS V14.01,2013-01-08 04:03:00,
2013-01-07 23:08:00,31.1,21.4,30.40,WNW,300,0.0,0.0,67,0.00,,---,0.00,VWS V14.01,2013-01-08 04:08:00,
2013-01-07 23:13:00,31.0,21.3,30.40,WNW,300,0.0,0.0,67,0.00,,---,0.00,VWS V14.01,2013-01-08 04:13:00,
2013-01-07 23:18:00,31.0,21.3,30.39,WNW,299,0.0,0.0,67,0.00,,---,0.00,VWS V14.01,2013-01-08 04:18:00,
2013-01-07 23:23:00,30.9,20.9,30.39,WNW,299,0.0,0.0,66,0.00,,---,0.00,VWS V14.01,2013-01-08 04:23:00,
2013-01-07 23:28:00,30.8,20.8,30.39,WNW,299,0.0,0.0,66,0.00,,---,0.00,VWS V14.01,2013-01-08 04:28:00,
2013-01-07 23:33:00,30.7,20.7,30.39,WNW,300,0.0,0.0,66,0.00,,---,0.00,VWS V14.01,2013-01-08 04:33:00,
2013-01-07 23:38:00,30.7,20.7,30.39,WNW,300,0.0,0.0,66,0.00,,---,0.00,VWS V14.01,2013-01-08 04:38:00,
2013-01-07 23:43:00,30.6,20.6,30.39,WNW,299,0.0,0.0,66,0.00,,---,0.00,VWS V14.01,2013-01-08 04:43:00,
2013-01-07 23:48:00,30.5,20.5,30.39,WNW,300,0.0,0.0,66,0.00,,---,0.00,VWS V14.01,2013-01-08 04:48:00,
2013-01-07 23:53:00,30.5,20.5,30.39,WNW,299,0.0,0.0,66,0.00,,---,0.00,VWS V14.01,2013-01-08 04:53:00,
2013-01-07 23:58:00,30.4,20.4,30.39,WNW,299,0.0,0.0,66,0.00,,---,0.00,VWS V14.01,2013-01-08 04:58:00,